C/2019 N1 ( ATLAS )

Japanese version
Home page
Updated on April 4, 2021

---------------------------------------------------------------------

* Profile

Discovery Date July 5, 2019
Magnitude 18.6 mag
Discoverer Asteroid Terrestrial-Impact Last Alert System (ATLAS) search program

* Pictures

* Orbital Elements

Epoch 2020 Dec. 17.0 TT = JDT 2459200.5
T 2020 Dec. 1.75999 TT                                  Rudenko
q   1.7043154            (2000.0)            P               Q
z  +0.0005663      Peri.  193.41856     -0.93837516     +0.25565589
 +/-0.0000502      Node    13.56938     -0.14515204     +0.31919190
e   0.9990348      Incl.   82.42855     -0.31366054     -0.91255498
From 1712 observations -1 Nov. 30-2021 Feb. 18, mean residual 0".3.

* Finding Charts

* Magnitudes Graph

        m1 = 8.0 + 5 log d + 8.5 log r

---------------------------------------------------------------------

The orbital elements are published on M.P.E.C. 2021-F20.
The charts are made with StellaNavigator Ver.10 (AstroArts).
The magnitudes graphs are made with Comet for Windows.

---------------------------------------------------------------------

Copyright(C) Seiichi Yoshida (comet@aerith.net). All rights reserved.